Time,TemperatureF,DewpointF,PressureIn,WindDirection,WindDirectionDegrees,WindSpeedMPH,WindSpeedGustMPH,Humidity,HourlyPrecipIn,Conditions,Clouds,dailyrainin,SoftwareType,DateUTC
2013-11-16 00:09:00,41.7,37.2,29.81,SE,145,0.0,0.0,84,0.00,,,-99.99,Weather View 32 v60,2013-11-16 08:09:00,
2013-11-16 00:19:00,41.5,37.4,29.81,SE,145,0.0,0.0,85,0.00,,,-99.99,Weather View 32 v60,2013-11-16 08:19:00,
2013-11-16 00:29:00,41.4,37.2,29.81,SE,145,0.0,0.0,85,0.00,,,-99.99,Weather View 32 v60,2013-11-16 08:29:00,
2013-11-16 00:39:00,41.2,37.0,29.81,SE,145,0.0,0.0,85,0.00,,,-99.99,Weather View 32 v60,2013-11-16 08:39:00,
2013-11-16 00:49:00,41.2,37.3,29.81,SE,145,0.0,0.0,86,0.00,,,-99.99,Weather View 32 v60,2013-11-16 08:49:00,
2013-11-16 00:59:00,41.2,37.3,29.81,East,85,0.0,0.0,86,0.00,,,-99.99,Weather View 32 v60,2013-11-16 08:59:00,
2013-11-16 01:09:00,41.0,37.1,29.81,NNW,342,0.0,0.0,86,0.00,,,-99.99,Weather View 32 v60,2013-11-16 09:09:00,
2013-11-16 01:19:00,40.6,36.8,29.81,WSW,246,0.0,0.0,86,0.00,,,-99.99,Weather View 32 v60,2013-11-16 09:19:00,
2013-11-16 01:29:00,40.6,36.8,29.81,WSW,246,0.0,0.0,86,0.00,,,-99.99,Weather View 32 v60,2013-11-16 09:29:00,
2013-11-16 01:39:00,40.6,37.1,29.81,WSW,246,0.0,0.0,87,0.00,,,-99.99,Weather View 32 v60,2013-11-16 09:39:00,
2013-11-16 01:49:00,40.6,37.1,29.79,ESE,119,0.0,0.0,87,0.00,,,-99.99,Weather View 32 v60,2013-11-16 09:49:00,
2013-11-16 01:59:00,40.6,37.1,29.81,West,279,0.0,0.0,87,0.00,,,-99.99,Weather View 32 v60,2013-11-16 09:59:00,
2013-11-16 02:09:00,40.5,36.9,29.81,West,279,0.0,0.0,87,0.00,,,-99.99,Weather View 32 v60,2013-11-16 10:09:00,
2013-11-16 02:19:00,40.5,36.9,29.81,West,279,0.0,0.0,87,0.00,,,-99.99,Weather View 32 v60,2013-11-16 10:19:00,
2013-11-16 02:29:00,40.5,36.9,29.81,West,279,0.0,0.0,87,0.00,,,-99.99,Weather View 32 v60,2013-11-16 10:29:00,
2013-11-16 02:39:00,40.5,36.9,29.81,West,279,0.0,0.0,87,0.00,,,-99.99,Weather View 32 v60,2013-11-16 10:39:00,
2013-11-16 02:49:00,40.5,36.9,29.81,West,279,0.0,0.0,87,0.00,,,-99.99,Weather View 32 v60,2013-11-16 10:49:00,
2013-11-16 02:59:00,40.3,36.7,29.79,West,279,0.0,0.0,87,0.00,,,-99.99,Weather View 32 v60,2013-11-16 10:59:00,
2013-11-16 03:09:00,40.3,37.0,29.79,West,279,0.0,0.0,88,0.00,,,-99.99,Weather View 32 v60,2013-11-16 11:09:00,
2013-11-16 03:19:00,40.3,37.0,29.81,West,279,0.0,0.0,88,0.00,,,-99.99,Weather View 32 v60,2013-11-16 11:19:00,
2013-11-16 03:29:00,39.9,36.7,29.81,West,279,0.0,0.0,88,0.00,,,-99.99,Weather View 32 v60,2013-11-16 11:29:00,
2013-11-16 03:39:00,39.7,36.5,29.81,West,279,0.0,0.0,88,0.00,,,-99.99,Weather View 32 v60,2013-11-16 11:39:00,
2013-11-16 03:49:00,39.6,36.6,29.81,NNE,19,0.0,0.0,89,0.00,,,-99.99,Weather View 32 v60,2013-11-16 11:49:00,
2013-11-16 03:59:00,39.6,36.9,29.81,WSW,250,0.0,0.0,90,0.00,,,-99.99,Weather View 32 v60,2013-11-16 11:59:00,
2013-11-16 04:09:00,39.6,36.9,29.81,ESE,109,0.0,0.0,90,0.00,,,-99.99,Weather View 32 v60,2013-11-16 12:09:00,
2013-11-16 04:19:00,39.6,37.1,29.81,ENE,65,0.0,0.0,91,0.00,,,-99.99,Weather View 32 v60,2013-11-16 12:19:00,
2013-11-16 04:29:00,39.6,37.1,29.81,East,90,0.0,0.0,91,0.00,,,-99.99,Weather View 32 v60,2013-11-16 12:29:00,
2013-11-16 04:39:00,39.4,37.0,29.81,East,90,0.0,0.0,91,0.00,,,-99.99,Weather View 32 v60,2013-11-16 12:39:00,
2013-11-16 04:49:00,39.2,36.8,29.79,East,90,0.0,0.0,91,0.00,,,-99.99,Weather View 32 v60,2013-11-16 12:49:00,
2013-11-16 04:59:00,39.2,36.8,29.81,North,3,0.0,0.0,91,0.00,,,-99.99,Weather View 32 v60,2013-11-16 12:59:00,
2013-11-16 05:09:00,38.8,36.4,29.81,NNW,333,0.0,0.0,91,0.00,,,-99.99,Weather View 32 v60,2013-11-16 13:09:00,
2013-11-16 05:19:00,38.8,36.4,29.81,NNW,342,0.0,0.0,91,0.00,,,-99.99,Weather View 32 v60,2013-11-16 13:19:00,
2013-11-16 05:29:00,38.8,36.7,29.81,NNW,340,0.0,0.0,92,0.00,,,-99.99,Weather View 32 v60,2013-11-16 13:29:00,
2013-11-16 05:39:00,39.0,36.9,29.81,NNW,340,0.0,0.0,92,0.00,,,-99.99,Weather View 32 v60,2013-11-16 13:39:00,
2013-11-16 05:49:00,38.8,36.7,29.81,NNW,340,0.0,0.0,92,0.00,,,-99.99,Weather View 32 v60,2013-11-16 13:49:00,
2013-11-16 05:59:00,38.8,36.7,29.81,West,271,0.0,0.0,92,0.00,,,-99.99,Weather View 32 v60,2013-11-16 13:59:00,
2013-11-16 06:09:00,39.2,37.3,29.81,ENE,65,0.0,0.0,93,0.00,,,-99.99,Weather View 32 v60,2013-11-16 14:09:00,
2013-11-16 06:19:00,39.0,37.2,29.81,North,6,0.0,0.0,93,0.00,,,-99.99,Weather View 32 v60,2013-11-16 14:19:00,
2013-11-16 06:29:00,38.8,37.3,29.81,NNW,336,0.0,0.0,94,0.00,,,-99.99,Weather View 32 v60,2013-11-16 14:29:00,
2013-11-16 06:39:00,38.7,37.1,29.81,West,269,0.0,0.0,94,0.00,,,-99.99,Weather View 32 v60,2013-11-16 14:39:00,
2013-11-16 06:49:00,38.5,36.9,29.81,NNW,335,0.0,0.0,94,0.00,,,-99.99,Weather View 32 v60,2013-11-16 14:49:00,
2013-11-16 06:59:00,38.7,37.1,29.84,NNW,335,0.0,0.0,94,0.00,,,-99.99,Weather View 32 v60,2013-11-16 14:59:00,
2013-11-16 07:09:00,38.7,37.1,29.84,NNW,335,0.0,0.0,94,0.00,,,-99.99,Weather View 32 v60,2013-11-16 15:09:00,
2013-11-16 07:19:00,38.8,37.5,29.84,NNW,335,0.0,0.0,95,0.00,,,-99.99,Weather View 32 v60,2013-11-16 15:19:00,
2013-11-16 07:29:00,39.4,38.1,29.84,NNW,335,0.0,0.0,95,0.00,,,-99.99,Weather View 32 v60,2013-11-16 15:29:00,
2013-11-16 07:39:00,40.1,38.8,29.84,NNW,335,0.0,0.0,95,0.00,,,-99.99,Weather View 32 v60,2013-11-16 15:39:00,
2013-11-16 07:49:00,41.0,39.7,29.84,NNW,335,0.0,0.0,95,0.00,,,-99.99,Weather View 32 v60,2013-11-16 15:49:00,
2013-11-16 07:59:00,41.9,40.6,29.84,NNW,335,0.0,0.0,95,0.00,,,-99.99,Weather View 32 v60,2013-11-16 15:59:00,
2013-11-16 08:04:00,41.9,40.6,29.84,NNW,335,0.0,0.0,95,0.00,,,-99.99,Weather View 32 v60,2013-11-16 16:04:00,
2013-11-16 08:09:00,43.3,42.0,29.84,NNW,335,0.0,0.0,95,0.00,,,-99.99,Weather View 32 v60,2013-11-16 16:09:00,
2013-11-16 08:19:00,44.6,43.3,29.84,ENE,64,0.0,0.0,95,0.00,,,-99.99,Weather View 32 v60,2013-11-16 16:19:00,
2013-11-16 08:29:00,46.4,45.0,29.84,ENE,59,0.0,0.0,95,0.00,,,-99.99,Weather View 32 v60,2013-11-16 16:29:00,
2013-11-16 08:39:00,48.2,46.3,29.84,NE,39,0.0,0.0,93,0.00,,,-99.99,Weather View 32 v60,2013-11-16 16:39:00,
2013-11-16 08:49:00,49.8,45.8,29.87,NE,39,0.0,0.0,86,0.00,,,-99.99,Weather View 32 v60,2013-11-16 16:49:00,
2013-11-16 08:59:00,0.0,0.0,29.87,NE,37,0.0,0.0,0,0.00,,,-99.99,Weather View 32 v60,2013-11-16 16:59:00,
2013-11-16 09:05:00,0.0,0.0,29.87,NE,37,0.0,0.0,0,0.00,,,-99.99,Weather View 32 v60,2013-11-16 17:05:00,
2013-11-16 09:19:00,0.0,0.0,29.87,SE,135,0.0,0.0,0,0.00,,,-99.99,Weather View 32 v60,2013-11-16 17:19:00,
2013-11-16 09:29:00,0.0,0.0,29.87,SW,236,0.0,0.0,0,0.00,,,-99.99,Weather View 32 v60,2013-11-16 17:29:00,
2013-11-16 09:39:00,54.5,38.6,29.87,SSW,208,0.0,5.0,55,0.00,,,-99.99,Weather View 32 v60,2013-11-16 17:39:00,
2013-11-16 09:49:00,55.0,38.2,29.87,West,264,0.0,5.0,53,0.00,,,-99.99,Weather View 32 v60,2013-11-16 17:49:00,
2013-11-16 09:59:00,55.8,37.9,29.87,SSW,206,0.0,5.0,51,0.00,,,-99.99,Weather View 32 v60,2013-11-16 17:59:00,
2013-11-16 10:05:00,55.8,37.9,29.87,SSW,206,0.0,5.0,51,0.00,,,-99.99,Weather View 32 v60,2013-11-16 18:05:00,
2013-11-16 10:19:00,57.2,37.6,29.87,WSW,250,3.0,5.0,48,0.00,,,-99.99,Weather View 32 v60,2013-11-16 18:19:00,
2013-11-16 10:29:00,58.1,37.4,29.87,WSW,238,0.0,5.0,46,0.00,,,-99.99,Weather View 32 v60,2013-11-16 18:29:00,
2013-11-16 10:39:00,58.8,37.5,29.87,SSW,197,0.0,5.0,45,0.00,,,-99.99,Weather View 32 v60,2013-11-16 18:39:00,
2013-11-16 10:49:00,59.7,37.7,29.87,SSW,202,0.0,5.0,44,0.00,,,-99.99,Weather View 32 v60,2013-11-16 18:49:00,
2013-11-16 10:59:00,60.4,35.9,29.87,West,270,0.0,5.0,40,0.00,,,-99.99,Weather View 32 v60,2013-11-16 18:59:00,
2013-11-16 11:06:00,60.4,35.9,29.87,West,270,0.0,5.0,40,0.00,,,-99.99,Weather View 32 v60,2013-11-16 19:06:00,
2013-11-16 11:19:00,61.0,35.1,29.87,WSW,253,0.0,6.0,38,0.00,,,-99.99,Weather View 32 v60,2013-11-16 19:19:00,
2013-11-16 11:29:00,61.7,35.1,29.84,ESE,106,0.0,6.0,37,0.00,,,-99.99,Weather View 32 v60,2013-11-16 19:29:00,
2013-11-16 11:39:00,61.9,34.6,29.84,SW,232,0.0,6.0,36,0.00,,,-99.99,Weather View 32 v60,2013-11-16 19:39:00,
2013-11-16 11:49:00,63.0,35.5,29.84,SSW,192,0.0,7.0,36,0.00,,,-99.99,Weather View 32 v60,2013-11-16 19:49:00,
2013-11-16 11:59:00,63.3,35.8,29.84,West,270,0.0,7.0,36,0.00,,,-99.99,Weather View 32 v60,2013-11-16 19:59:00,
2013-11-16 12:06:00,63.3,35.8,29.84,West,270,0.0,7.0,36,0.00,,,-99.99,Weather View 32 v60,2013-11-16 20:06:00,
2013-11-16 12:19:00,64.2,35.9,29.84,WSW,245,0.0,7.0,35,0.00,,,-99.99,Weather View 32 v60,2013-11-16 20:19:00,
2013-11-16 12:29:00,64.8,36.4,29.84,SSE,164,0.0,7.0,35,0.00,,,-99.99,Weather View 32 v60,2013-11-16 20:29:00,
2013-11-16 12:39:00,65.1,36.7,29.84,NNE,32,0.0,7.0,35,0.00,,,-99.99,Weather View 32 v60,2013-11-16 20:39:00,
2013-11-16 12:49:00,65.1,36.0,29.84,WSW,258,0.0,7.0,34,0.00,,,-99.99,Weather View 32 v60,2013-11-16 20:49:00,
2013-11-16 12:59:00,65.8,36.6,29.84,WSW,246,0.0,7.0,34,0.00,,,-99.99,Weather View 32 v60,2013-11-16 20:59:00,
2013-11-16 13:07:00,65.8,36.6,29.84,WSW,246,0.0,7.0,34,0.00,,,-99.99,Weather View 32 v60,2013-11-16 21:07:00,
2013-11-16 13:19:00,66.0,36.8,29.84,WSW,243,4.0,7.0,34,0.00,,,-99.99,Weather View 32 v60,2013-11-16 21:19:00,
2013-11-16 13:29:00,66.4,37.1,29.84,WSW,238,4.0,6.0,34,0.00,,,-99.99,Weather View 32 v60,2013-11-16 21:29:00,
2013-11-16 13:39:00,66.2,36.2,29.84,West,260,7.0,7.0,33,0.00,,,-99.99,Weather View 32 v60,2013-11-16 21:39:00,
2013-11-16 13:49:00,66.0,36.0,29.84,WSW,258,0.0,7.0,33,0.00,,,-99.99,Weather View 32 v60,2013-11-16 21:49:00,
2013-11-16 13:59:00,66.0,36.0,29.84,WSW,252,0.0,8.0,33,0.00,,,-99.99,Weather View 32 v60,2013-11-16 21:59:00,
2013-11-16 14:08:00,66.0,36.0,29.84,WSW,252,0.0,8.0,33,0.00,,,-99.99,Weather View 32 v60,2013-11-16 22:08:00,
2013-11-16 14:19:00,66.4,36.3,29.84,SSW,206,0.0,9.0,33,0.00,,,-99.99,Weather View 32 v60,2013-11-16 22:19:00,
2013-11-16 14:29:00,65.7,35.7,29.84,SW,228,0.0,9.0,33,0.00,,,-99.99,Weather View 32 v60,2013-11-16 22:29:00,
2013-11-16 14:39:00,65.7,36.5,29.84,SW,221,0.0,9.0,34,0.00,,,-99.99,Weather View 32 v60,2013-11-16 22:39:00,
2013-11-16 14:49:00,65.1,37.4,29.84,SW,219,4.0,9.0,36,0.00,,,-99.99,Weather View 32 v60,2013-11-16 22:49:00,
2013-11-16 14:59:00,65.3,37.6,29.84,SSW,204,3.0,9.0,36,0.00,,,-99.99,Weather View 32 v60,2013-11-16 22:59:00,
2013-11-16 15:00:00,65.3,37.6,29.84,SSW,204,3.0,9.0,36,0.00,,,-99.99,Weather View 32 v60,2013-11-16 23:00:00,
2013-11-16 15:10:00,64.8,37.8,29.84,West,260,0.0,9.0,37,0.00,,,-99.99,Weather View 32 v60,2013-11-16 23:10:00,
2013-11-16 15:19:00,64.6,37.7,29.84,West,264,0.0,9.0,37,0.00,,,-99.99,Weather View 32 v60,2013-11-16 23:19:00,
2013-11-16 15:29:00,64.0,37.9,29.84,SW,230,0.0,9.0,38,0.00,,,-99.99,Weather View 32 v60,2013-11-16 23:29:00,
2013-11-16 15:39:00,63.7,38.8,29.84,West,271,0.0,9.0,40,0.00,,,-99.99,Weather View 32 v60,2013-11-16 23:39:00,
2013-11-16 15:49:00,63.1,39.6,29.84,SW,214,0.0,8.0,42,0.00,,,-99.99,Weather View 32 v60,2013-11-16 23:49:00,
2013-11-16 15:59:00,62.2,40.6,29.84,WSW,248,0.0,8.0,45,0.00,,,-99.99,Weather View 32 v60,2013-11-16 23:59:00,
2013-11-16 16:09:00,61.3,40.9,29.84,WSW,240,0.0,8.0,47,0.00,,,-99.99,Weather View 32 v60,2013-11-17 00:09:00,
2013-11-16 16:19:00,60.8,42.0,29.84,South,188,0.0,7.0,50,0.00,,,-99.99,Weather View 32 v60,2013-11-17 00:19:00,
2013-11-16 16:29:00,59.9,42.2,29.84,WSW,251,0.0,7.0,52,0.00,,,-99.99,Weather View 32 v60,2013-11-17 00:29:00,
2013-11-16 16:39:00,59.0,42.8,29.84,SE,124,0.0,7.0,55,0.00,,,-99.99,Weather View 32 v60,2013-11-17 00:39:00,
2013-11-16 16:49:00,58.3,42.6,29.87,West,262,0.0,5.0,56,0.00,,,-99.99,Weather View 32 v60,2013-11-17 00:49:00,
2013-11-16 16:59:00,57.6,42.9,29.87,SSW,198,0.0,5.0,58,0.00,,,-99.99,Weather View 32 v60,2013-11-17 00:59:00,
2013-11-16 17:09:00,56.8,43.9,29.87,SW,214,0.0,0.0,62,0.00,,,-99.99,Weather View 32 v60,2013-11-17 01:09:00,
2013-11-16 17:19:00,56.3,43.8,29.87,West,263,0.0,0.0,63,0.00,,,-99.99,Weather View 32 v60,2013-11-17 01:19:00,
2013-11-16 17:29:00,55.9,44.3,29.87,SE,145,0.0,0.0,65,0.00,,,-99.99,Weather View 32 v60,2013-11-17 01:29:00,
2013-11-16 17:39:00,55.2,43.2,29.87,SE,145,0.0,0.0,64,0.00,,,-99.99,Weather View 32 v60,2013-11-17 01:39:00,
2013-11-16 17:49:00,54.7,43.5,29.87,SE,145,0.0,0.0,66,0.00,,,-99.99,Weather View 32 v60,2013-11-17 01:49:00,
2013-11-16 17:59:00,54.3,44.3,29.87,East,98,0.0,0.0,69,0.00,,,-99.99,Weather View 32 v60,2013-11-17 01:59:00,
2013-11-16 18:09:00,54.0,45.1,29.87,SSW,197,0.0,0.0,72,0.00,,,-99.99,Weather View 32 v60,2013-11-17 02:09:00,
2013-11-16 18:19:00,53.6,44.8,29.87,ESE,110,0.0,0.0,72,0.00,,,-99.99,Weather View 32 v60,2013-11-17 02:19:00,
2013-11-16 18:29:00,53.4,45.0,29.90,SSE,151,0.0,0.0,73,0.00,,,-99.99,Weather View 32 v60,2013-11-17 02:29:00,
2013-11-16 18:39:00,53.1,45.0,29.90,SSE,151,0.0,0.0,74,0.00,,,-99.99,Weather View 32 v60,2013-11-17 02:39:00,
2013-11-16 18:49:00,52.7,45.3,29.90,SSE,151,0.0,0.0,76,0.00,,,-99.99,Weather View 32 v60,2013-11-17 02:49:00,
2013-11-16 18:59:00,52.2,45.2,29.90,SSE,151,0.0,0.0,77,0.00,,,-99.99,Weather View 32 v60,2013-11-17 02:59:00,
2013-11-16 19:09:00,51.8,45.5,29.90,SSW,205,0.0,0.0,79,0.00,,,-99.99,Weather View 32 v60,2013-11-17 03:09:00,
2013-11-16 19:19:00,51.6,45.6,29.90,WSW,254,0.0,0.0,80,0.00,,,-99.99,Weather View 32 v60,2013-11-17 03:19:00,
2013-11-16 19:29:00,51.3,45.3,29.90,South,181,0.0,0.0,80,0.00,,,-99.99,Weather View 32 v60,2013-11-17 03:29:00,
2013-11-16 19:39:00,50.9,45.3,29.90,South,181,0.0,0.0,81,0.00,,,-99.99,Weather View 32 v60,2013-11-17 03:39:00,
2013-11-16 19:49:00,50.7,45.4,29.90,South,181,0.0,0.0,82,0.00,,,-99.99,Weather View 32 v60,2013-11-17 03:49:00,
2013-11-16 19:59:00,50.4,45.4,29.90,South,181,0.0,0.0,83,0.00,,,-99.99,Weather View 32 v60,2013-11-17 03:59:00,
2013-11-16 20:09:00,50.0,45.0,29.90,South,181,0.0,0.0,83,0.00,,,-99.99,Weather View 32 v60,2013-11-17 04:09:00,
2013-11-16 20:19:00,49.6,44.7,29.90,SW,217,0.0,0.0,83,0.00,,,-99.99,Weather View 32 v60,2013-11-17 04:19:00,
2013-11-16 20:29:00,49.5,44.8,29.93,SW,217,0.0,0.0,84,0.00,,,-99.99,Weather View 32 v60,2013-11-17 04:29:00,
2013-11-16 20:39:00,49.1,44.8,29.93,SW,217,0.0,0.0,85,0.00,,,-99.99,Weather View 32 v60,2013-11-17 04:39:00,
2013-11-16 20:49:00,48.9,44.6,29.93,NNW,332,0.0,0.0,85,0.00,,,-99.99,Weather View 32 v60,2013-11-17 04:49:00,
2013-11-16 20:59:00,48.6,44.2,29.93,NNW,332,0.0,0.0,85,0.00,,,-99.99,Weather View 32 v60,2013-11-17 04:59:00,
2013-11-16 21:09:00,48.4,44.4,29.93,NNW,332,0.0,0.0,86,0.00,,,-99.99,Weather View 32 v60,2013-11-17 05:09:00,
2013-11-16 21:13:00,48.4,44.4,29.93,NNW,332,0.0,0.0,86,0.00,,,-99.99,Weather View 32 v60,2013-11-17 05:13:00,
2013-11-16 21:19:00,48.2,44.2,29.93,WNW,301,0.0,0.0,86,0.00,,,-99.99,Weather View 32 v60,2013-11-17 05:19:00,
2013-11-16 21:29:00,48.0,44.3,29.93,WNW,301,0.0,0.0,87,0.00,,,-99.99,Weather View 32 v60,2013-11-17 05:29:00,
2013-11-16 21:39:00,47.8,44.2,29.93,WNW,301,0.0,0.0,87,0.00,,,-99.99,Weather View 32 v60,2013-11-17 05:39:00,
2013-11-16 21:49:00,47.7,44.3,29.93,WNW,301,0.0,0.0,88,0.00,,,-99.99,Weather View 32 v60,2013-11-17 05:49:00,
2013-11-16 21:59:00,47.5,44.4,29.93,ENE,75,0.0,0.0,89,0.00,,,-99.99,Weather View 32 v60,2013-11-17 05:59:00,
2013-11-16 22:09:00,47.7,44.9,29.93,ENE,75,0.0,0.0,90,0.00,,,-99.99,Weather View 32 v60,2013-11-17 06:09:00,
2013-11-16 22:19:00,47.5,45.0,29.93,ENE,75,0.0,0.0,91,0.00,,,-99.99,Weather View 32 v60,2013-11-17 06:19:00,
2013-11-16 22:29:00,47.3,44.8,29.93,NE,37,0.0,0.0,91,0.00,,,-99.99,Weather View 32 v60,2013-11-17 06:29:00,
2013-11-16 22:39:00,47.7,45.4,29.93,NE,36,0.0,0.0,92,0.00,,,-99.99,Weather View 32 v60,2013-11-17 06:39:00,
2013-11-16 22:49:00,47.5,45.3,29.93,NE,36,0.0,0.0,92,0.00,,,-99.99,Weather View 32 v60,2013-11-17 06:49:00,
2013-11-16 22:59:00,47.1,45.2,29.93,NE,36,0.0,0.0,93,0.00,,,-99.99,Weather View 32 v60,2013-11-17 06:59:00,
2013-11-16 23:09:00,46.8,44.8,29.93,NE,36,0.0,0.0,93,0.00,,,-99.99,Weather View 32 v60,2013-11-17 07:09:00,
2013-11-16 23:19:00,46.4,44.5,29.93,NE,36,0.0,0.0,93,0.00,,,-99.99,Weather View 32 v60,2013-11-17 07:19:00,
2013-11-16 23:29:00,46.4,44.5,29.93,NE,36,0.0,0.0,93,0.00,,,-99.99,Weather View 32 v60,2013-11-17 07:29:00,
2013-11-16 23:39:00,46.2,44.3,29.93,NE,36,0.0,0.0,93,0.00,,,-99.99,Weather View 32 v60,2013-11-17 07:39:00,
2013-11-16 23:49:00,46.2,44.3,29.96,NE,36,0.0,0.0,93,0.00,,,-99.99,Weather View 32 v60,2013-11-17 07:49:00,
2013-11-16 23:59:00,46.2,44.3,29.96,NE,36,0.0,0.0,93,0.00,,,-99.99,Weather View 32 v60,2013-11-17 07:59:00,